www.pogodaiklimat.ru

Погода и климат >> Архив погоды >> Индия >> Раджастхан >> Джайсалмер


ПОГОДА в Джайсалмере

  • Прогноз погоды в Джайсалмере
  • Монитор погоды в Джайсалмере

АРХИВ ПОГОДЫ в Джайсалмере

Время (UTC), дата Ветер
(напр.,м/с)
 
Видим.   Явления Облачность Т
(С)
Тd
(С)
f
(%)
Тe
(С)
Тes
(С)
Комфортность P
(гПа)
Po
(гПа)
Тmin
(С)
Tmax
(С)
R
(мм)
R24
(мм)
S
(см)
21 16.01 штиль 0 4000 м ясно +14.4 +5.1 54 +14 +14 1014.4 1014.0
00 17.01 С 2 4000 м ясно +11.4 +5.3 66 +10 +10 1014.5 1015.0
03 17.01 СВ 1 2000 м мгла ясно +9.6 +6.2 79 +10 +11 1016.2 1016.0 +9.1 +26.8
06 17.01 СВ 3 2000 м мгла ясно +16.6 +6.4 51 +17 +25 1017.2 1017.0
09 17.01 СВ 3 2000 м мгла ясно +23.0 +3.1 27 +23 +30 комфорт 1013.7 1014.0
12 17.01 С 2 2000 м мгла ясно +22.8 +4.7 31 +23 +23 комфорт 1012.5 1013.0 +24.2
15 17.01 СВ 2 2000 м мгла ясно +17.6 +5.2 44 +18 +18 1014.2 1014.0
18 17.01 СВ 2 2000 м мгла ясно +15.8 +4.3 46 +16 +16 1015.1 1015.0
21 17.01 СВ 1 2000 м мгла ясно +14.0 +3.4 49 +15 +15 1014.9 1015.0
00 18.01 штиль 0 2000 м мгла ясно +12.0 +5.1 63 +12 +12 1014.6 1015.0
03 18.01 ЮВ 1 2000 м мгла ясно +13.0 +4.3 55 +13 +14 1015.3 1015.0 +10.6 +24.2
06 18.01 В 1 2000 м мгла ясно +22.4 +4.0 30 +22 +34 комфорт 1015.6 1016.0
09 18.01 Ю 1 2000 м мгла ясно +28.0 +3.2 20 +26 +36 жарко 1012.0 1012.0
12 18.01 штиль 0 2000 м мгла ясно +27.6 +6.4 26 +27 +27 жарко 1011.0 1011.0 +29.0
15 18.01 С 2 4000 м ясно +20.2 +5.2 37 +22 +22 комфорт 1013.0 1013.0
18 18.01 С 1 4000 м ясно +17.8 +5.5 44 +19 +19 1013.8 1014.0
21 18.01 С 1 4000 м ясно +15.4 +4.8 49 +16 +16 1013.5 1014.0
00 19.01 штиль 0 4000 м 4/0
[Ci fib]
+12.4 +4.0 57 +12 +12 1013.7 1014.0
03 19.01 СВ 1 4000 м мгла 5/0
[Ci sp]
+11.8 +5.8 67 +13 +14 1014.4 1014.0 +10.8 +29.0
06 19.01 СВ 1 4000 м мгла 5/0
[Ci sp]
+17.0 +7.0 52 +19 +29 1016.0 1016.0
09 19.01 С 1 2000 м мгла 8/3 900 м
[Sc Ci sp]
+24.0 +4.9 29 +24 +29 комфорт 1012.8 1013.0
12 19.01 С 1 2000 м мгла 6/0
[Ci sp]
+25.0 +6.0 30 +25 +25 комфорт 1011.8 1012.0 +26.4
15 19.01 С 1 2000 м мгла 6/0
[Ci sp]
+19.6 +7.5 45 +21 +21 комфорт 1013.4 1013.0
18 19.01 С 1 2000 м мгла 6/0
[Ci sp]
+18.0 +5.2 43 +19 +19 1014.0 1014.0
21 19.01 С 1 2000 м мгла 6/0
[Ci sp]
+16.8 +5.7 48 +18 +18 1013.6 1014.0
00 20.01 С 2 1000 м дымка 3/0
[Ci sp]
+12.4 +8.4 77 +12 +12 1013.4 1013.0
03 20.01 СЗ 1 2000 м мгла 3/0
[Ci sp]
+11.0 +7.7 80 +11 +12 1014.9 1015.0 +10.1 +26.4
06 20.01 ЮЗ 1 2000 м мгла 3/0
[Ci sp]
+22.6 +7.2 37 +23 +33 комфорт 1014.5 1015.0
12 20.01 З 2 2000 м мгла 10/3 900 м
[Sc As op]
+26.0 +7.7 31 +26 +26 жарко 1009.8 1010.0 +27.6
15 20.01 СВ 4 2000 м мгла 10/3 900 м
[Sc As op]
+21.6 +7.3 40 +23 +23 комфорт 1011.4 1011.0
18 20.01 С 5 2000 м мгла 10/3 900 м
[Sc As op]
+18.0 +7.8 51 +18 +18 1013.0 1013.0
21 20.01 С 5 2000 м мгла 10/3 900 м
[Sc As op]
+16.2 +8.4 60 +15 +15 1012.7 1013.0
00 21.01 СВ 2 2000 м гроза без осадков 10/6 900 м
[Cb calv As op]
+15.4 +8.3 63 +15 +15 1012.6 1013.0
03 21.01 СВ 4 2000 м мгла {гроза, дождь} 10/6 900 м
[Cb calv As op]
+14.4 +11.0 80 +13 +13 1012.6 1013.0 +13.7 +27.6 0.0
06 21.01 штиль 0 2000 м слаб. дождь {гроза} 9/5 900 м
[Sc As op]
+14.4 +13.7 96 +14 +16 1012.7 1013.0 8
09 21.01 СЗ 2 4000 м {дождь} 8/5 900 м
[Cu Sc Ac trans]
+17.8 +13.2 74 +19 +21 1009.7 1010.0 8
12 21.01 СЗ 1 4000 м {дождь} 8/6 900 м
[Cu Sc Ac trans]
+16.8 +12.5 76 +18 +18 1008.8 1009.0 +18.5 8
15 21.01 СЗ 2 4000 м 8/6 900 м
[Cu Sc Ac trans]
+15.4 +13.3 87 +15 +15 1010.0 1010.0 8
18 21.01 штиль 0 4000 м 5/5 900 м
[Sc]
+13.6 +12.5 93 +13 +13 1010.8 1011.0
21 21.01 СЗ 1 2000 м мгла ясно +12.8 +12.1 96 +13 +13 1010.1 1010.0 8
00 22.01 штиль 0 500 м туман ясно +11.0 +10.2 95 +10 +10 1010.5 1011.0
03 22.01 С 1 50 м туман ?/? +10.6 +10.6 100 +11 +11 1011.9 1012.0 +8.7 +18.5 8
06 22.01 С 1 2000 м мгла {туман} 3/0
[Ci sp]
+14.4 +11.4 82 +15 +26 опасность
простуды
1013.2 1013.0
09 22.01 штиль 0 2000 м мгла 5/5 900 м
[Sc]
+18.6 +10.9 61 +19 +25 1010.9 1011.0
12 22.01 ЮЗ 1 2000 м мгла 4/4 900 м
[Sc]
+19.2 +7.5 47 +21 +21 комфорт 1010.5 1011.0 +20.6
15 22.01 штиль 0 2000 м мгла ясно +15.2 +10.3 73 +15 +15 1012.6 1013.0
18 22.01 штиль 0 2000 м мгла ясно +13.0 +9.9 81 +13 +13 1013.3 1013.0
21 22.01 СВ 1 2000 м мгла ясно +11.6 +7.5 76 +11 +11 1013.5 1014.0
00 23.01 штиль 0 2000 м мгла ясно +10.6 +8.1 85 +10 +10 1014.4 1014.0
03 23.01 штиль 0 2000 м мгла ясно +9.2 +7.5 89 +8 +10 1015.4 1015.0 +8.5 +20.6
06 23.01 СВ 1 2000 м мгла ясно +17.2 +7.3 52 +18 +29 1016.4 1016.0
09 23.01 СВ 2 4000 м ясно +20.0 +6.5 41 +22 +31 комфорт 1014.8 1015.0
12 23.01 СВ 2 4000 м 3/3 900 м
[Sc]
+19.6 +4.8 38 +21 +21 комфорт 1014.4 1014.0 +20.6
15 23.01 СВ 2 4000 м ясно +16.0 +6.7 54 +16 +16 1016.3 1016.0
18 23.01 СВ 2 4000 м ясно +13.6 +8.4 71 +13 +13 1017.3 1017.0

 

Местоположение метеостанции Джайсалмер (Раджастхан, Индия): широта 26.90 долгота 70.92 высота над уровнем моря 231 м.

В архиве по умолчанию представлена погода в Джайсалмере за последнюю неделю. Архивные данные за месяц целиком и за предыдущие месяцы, начиная с января 2011 года, Вы можете получить, выбрав интересующий диапазон дат из раскрывающегося списка и нажав кнопку "Ввод!".


*Определитесь, кто Вы:
робот инопланетянин человек

Внимание! Время в таблицах - всемирное. Для получения местного времени необходимо прибавить поправку, которая равна 5.5 ч.

Смотрите также архив погоды в соседних городах и на ближайших метеорологических станциях:

Погода в Бармере (Раджастхан, Индия) (136 км)
Погода в Чоре (Пакистан) (191 км)
Погода в Ханпуре (Пакистан) (196 км)
Погода в Рохри (Пакистан) (217 км)
Погода в Джодхпуре (Раджастхан, Индия) (219 км)
Погода в Навабшахе (Пакистан) (264 км)
Погода в Биканере (Раджастхан, Индия) (265 км)
Погода в Пад Идан (Пакистан) (277 км)
Погода в Джейкобабаде (Пакистан) (287 км)
Погода в Бахавалпуре (Пакистан) (291 км)

Пояснения к столбцам:

Ветер - указаны скорость ветра в м/с - средняя за 10 мин, порывы в срок и между сроками (в фигурных скобках) и направление, откуда дует ветер: С - северный, СВ - северо-восточный, В - восточный, ЮВ - юго-восточный, Ю - южный, ЮЗ - юго-западный, З - западный, СЗ - северо-западный.
Видимость - горизонтальная дальность видимости в метрах или километрах. При видимости от 1 до 10 км при отсутствии осадков обычно наблюдается дымка, при ухудшении видимости до 1 км и менее - туман. В сухую погоду видимость может ухудшаться дымом, пылью или мглою.
Явления - указаны атмосферные явления, наблюдавшиеся в срок или в последний час перед сроком; фигурными скобками обозначены явления, наблюдавшиеся между сроками (за 1-3 часа до срока); квадратными скобками обозначены град или гололедные отложения с указанием их диаметра в мм.
Облачность - указаны через наклонную черту общая и нижняя облачность в баллах и высота нижней границы облаков в метрах; квадратными скобками обозначены формы облаков: Ci - перистые, Cs - перисто-слоистые, Cc - перисто-кучевые, Ac - высококучевые, As - высокослоистые, Sc - слоисто-кучевые, Ns - слоисто-дождевые, Cu - кучевые, Cb - кучево-дождевые. Подробнее классификацию облаков см. в Атласе облаков (PDF).
T - Температура воздуха - температура, измеренная на высоте 2 м над землей.
Td - Температура точки росы - температура, при понижении до которой содержащийся в воздухе водяной пар достигнет насыщения.
f - Относительная влажность воздуха - влажноcть воздуха, измеренная на высоте 2 м над землей.
Te - Эффективная температура - температура, которую ощущает одетый по сезону человек в тени. Характеристика душности погоды. При расчете учитывается влияние влажности воздуха и скорости ветра на теплоощущения человека.
Tes - Эффективная температура на солнце - температура, которую ощущает человек, с поправкой на солнечный нагрев. Характеристика знойности погоды. Зависит от высоты солнца над горизонтом, облачности и скорости ветра. Ночью, в пасмурную погоду, а также при ветре 12 м/с и более поправка равна нулю.
P - Атмосферное давление - приведенное к уровню моря атмосферное давление.
Po - Атмосферное давление - измеренное на уровне метеостанции атмосферное давление.
Tmin - Минимальная температура - минимум температуры воздуха на высоте 2 м над землей.
Tmax - Максимальная температура - максимум температуры воздуха на высоте 2 м над землей.
R - Количество осадков - Количество выпавших осадков за период времени, мм. При наведении курсора мыши на число - период времени, за который выпало указанное количество осадков.
R24 - Количество осадков - Количество выпавших осадков за 24 часа, мм.
S - Снежный покров - Высота снежного покрова, см. При наведении курсора мыши на число - состояние снежного покрова и степень покрытия местности в баллах.